FW6550 Weather Reports


Display with metric or nautical units.
time (UTC)temp
F
wind
direction
speed
MPH
gust
MPH
rain 1hr
in
rain 24hr
in
rain mn
in
humidity
%
barometer
mb
20260505041537 62 0 0.0 1.0 0.00 0.00 0.00 70 1014.0
20260505040037 63 0 0.0 0.0 0.00 0.00 0.00 69 1013.8
20260505034534 64 0 0.0 0.0 0.00 0.00 0.00 67 1013.9
20260505033033 64 0 0.0 0.0 0.00 0.00 0.00 65 1013.7
20260505031548 65 0 0.0 0.0 0.00 0.00 0.00 64 1013.6
20260505030038 66 0 0.0 0.0 0.00 0.00 0.00 63 1013.6
20260505024540 66 0 0.0 0.0 0.00 0.00 0.00 61 1013.6
20260505023035 66 0 0.0 0.0 0.00 0.00 0.00 60 1013.6
20260505021532 67 0 0.0 0.0 0.00 0.00 0.00 60 1013.6
20260505020035 68 0 0.0 0.0 0.00 0.00 0.00 58 1013.4
20260505014536 69 0 0.0 0.0 0.00 0.00 0.00 56 1013.3
20260505013034 70 0 0.0 0.0 0.00 0.00 0.00 54 1013.0
20260505011534 71 0 0.0 0.0 0.00 0.00 0.00 52 1013.1
20260505010031 71 0 0.0 0.0 0.00 0.00 0.00 49 1012.9
20260505004544 72 0 0.0 1.0 0.00 0.00 0.00 48 1013.0
20260505003033 73 0 0.0 0.0 0.00 0.00 0.00 45 1012.8
20260505001534 74 0 0.0 0.0 0.00 0.00 0.00 43 1012.8
20260505000052 75 0 0.0 2.0 0.00 0.00 0.00 42 1012.8
20260504234531 77 0 1.0 4.0 0.00 0.00 0.00 39 1012.9
20260504233032 78 183 0.0 4.0 0.00 0.00 0.00 41 1013.3
20260504231535 78 219 1.0 4.0 0.00 0.00 0.00 40 1013.4
20260504230037 78 0 0.0 5.0 0.00 0.00 0.00 42 1013.5
20260504224531 78 0 0.0 4.0 0.00 0.00 0.00 41 1013.5
20260504223034 79 140 0.0 4.0 0.00 0.00 0.00 41 1013.5
20260504221549 79 49 0.0 5.0 0.00 0.00 0.00 40 1013.7
20260504220035 79 0 0.0 4.0 0.00 0.00 0.00 40 1013.9
20260504214537 79 315 1.0 4.0 0.00 0.00 0.00 41 1013.8
20260504213037 79 286 2.0 7.0 0.00 0.00 0.00 40 1013.8
20260504211534 80 319 2.0 7.0 0.00 0.00 0.00 43 1013.8
20260504210032 80 112 1.0 7.0 0.00 0.00 0.00 40 1014.2
20260504204538 80 266 1.0 8.0 0.00 0.00 0.00 42 1014.2
20260504203033 81 0 2.0 7.0 0.00 0.00 0.00 39 1014.5
20260504201535 82 30 1.0 7.0 0.00 0.00 0.00 40 1014.6
20260504200034 82 188 2.0 8.0 0.00 0.00 0.00 43 1014.6
20260504194532 82 317 1.0 5.0 0.00 0.00 0.00 45 1015.0
20260504193032 83 261 1.0 7.0 0.00 0.00 0.00 41 1015.0
20260504191540 82 311 0.0 6.0 0.00 0.00 0.00 43 1015.1
20260504190036 81 265 2.0 7.0 0.00 0.00 0.00 44 1015.3
20260504184535 82 0 0.0 6.0 0.00 0.00 0.00 47 1015.5
20260504183034 81 336 1.0 4.0 0.00 0.00 0.00 47 1015.7
20260504181535 80 0 0.0 4.0 0.00 0.00 0.00 45 1015.8
20260504180032 80 195 1.0 6.0 0.00 0.00 0.00 47 1016.0
20260504174535 79 13 0.0 4.0 0.00 0.00 0.00 51 1016.2
20260504173036 78 211 1.0 7.0 0.00 0.00 0.00 53 1016.3
20260504171535 80 0 0.0 5.0 0.00 0.00 0.00 52 1016.6
20260504081534 49 0 0.0 0.0 0.00 0.00 0.00 61 1017.4